Regional Weather Roundup
Issued by NWS

Home | Current Version | Previous Version | Graphics & Text | Print | Product List | Glossary On
Versions: 1 2 3 4 5 6 7 8 9 10 11 12 13 14 15 16 17 18 19 20 21 22 23 24 25 26 27 28 29 30 31 32 33 34 35 36 37 38 39 40 41 42 43 44 45 46 47 48 49 50
000
ASUS43 KIND 020909
RWRIN

WEATHER ROUNDUP FOR INDIANA
NATIONAL WEATHER SERVICE INDIANAPOLIS IN
500 AM EDT THU OCT 02 2014

NOTE: "FAIR" INDICATES FEW OR NO CLOUDS BELOW 12,000 FEET WITH NO
SIGNIFICANT WEATHER AND/OR OBSTRUCTIONS TO VISIBILITY.

* - STATION DOES NOT REPORT WEATHER SUCH AS PRECIPITATION OR FOG.

+ - STATION NOT QUALITY CONTROLLED BY THE NATIONAL WEATHER SERVICE.
    USE DATA WITH CAUTION...ESPECIALLY DEWPOINT AND RELATIVE
    HUMIDITY OBSERVATIONS.

INZ001>003-010>013-019-020-021000-
NORTHWEST INDIANA

CITY           SKY/WX    TMP DP  RH WIND       PRES   REMARKS
GARY /AIRPORT/ CLOUDY    63  57  81 SE6       29.89F
KNOX *+        CLOUDY    62  52  71 SE7       29.90S
LA PORTE +     CLOUDY    61  56  83 CALM      29.93R
MICHIGAN CITY+ CLOUDY    59  52  77 CALM      29.92R
MONTICELLO +   CLOUDY    62  56  81 SE5       29.90S
RENSSELAER +   LGT RAIN  61  59  94 NE5       29.91R
VALPARAISO     CLOUDY    61  54  77 SE5       29.92R

$$

LMZ046-743>745-021000-
SOUTHERN LAKE MICHIGAN

STATION/POSITION TIME  TEMP WIND        PRES
                       AIR  DIR/SP/G
                 (UTC) (F)  (DEG/KT/KT) (MB)
BURNS HARBOR     0800   63  160/ 13/ 22   N/A
MICHIGAN CITY    0900   61  130/ 10/ 13   N/A

$$

INZ004-005-014>016-021>024-021000-
NORTH CENTRAL INDIANA

CITY           SKY/WX    TMP DP  RH WIND       PRES   REMARKS
GOSHEN         CLOUDY    60  50  69 SE13      29.94
LOGANSPORT +   CLOUDY    61  52  72 SE7       29.93S
PERU/GRISSOM   MOCLDY    59  57  93 SE7       29.94S
ROCHESTER +    CLOUDY    61  54  77 SE8       29.94R
SOUTH BEND     NOT AVBL
WARSAW +       CLOUDY    59  50  72 SE7       29.95F

$$

INZ006>009-017-018-025>027-021000-
NORTHEAST INDIANA

CITY           SKY/WX    TMP DP  RH WIND       PRES   REMARKS
ANGOLA *+      CLEAR     55  52  88 SE6       29.98F
AUBURN +       PTCLDY    50  46  87 CALM      30.00S
FORT WAYNE     MOCLDY    54  49  83 SE8       29.98F
HUNTINGTON +   PTCLDY    55  50  82 SE6       29.96F

$$

INZ028-029-035-036-043>045-051>053-021000-
WEST CENTRAL INDIANA

CITY           SKY/WX    TMP DP  RH WIND       PRES   REMARKS
CRAWFORDSVL +    N/A     61  55  82 SE8       29.92
GREENCASTLE +  MOCLDY    59  57  94 CALM      29.94S
LAFAYETTE      CLOUDY    64  56  75 SE6       29.90S
TERRE HAUTE    LGT RAIN  66  57  72 S8        29.91S

$$

INZ030>032-037>040-046>048-054>057-064-065-021000-
CENTRAL INDIANA

CITY           SKY/WX    TMP DP  RH WIND       PRES   REMARKS
CP ATTERBURY + CLEAR     55  52  88 CALM      29.97R
FRANKFORT +    MOCLDY    61  55  81 SE6       29.94R
INDIANAPOLIS   MOCLDY    62  54  74 SE9       29.94S
-EAGLE CREEK   PTCLDY    61  54  77 VRB3      29.95S
KOKOMO *+      PTCLDY    57  50  77 SE8       29.95S
MARION +       PTCLDY    56  48  74 SE8       29.96F
MT COMFORT *+  CLEAR     59  50  72 SE7       29.97R
SHELBYVILLE    CLEAR     60  53  77 SE6       29.96S
ZIONSVILLE +   PTCLDY    59  53  79 SE5       29.96R

$$

INZ033-034-041-042-049-050-058-059-021000-
EAST CENTRAL INDIANA

CITY           SKY/WX    TMP DP  RH WIND       PRES   REMARKS
MUNCIE         CLEAR     61  51  70 SE6       29.97F

$$

INZ060-061-067>069-081>083-085>088-021000-
SOUTHWEST INDIANA

CITY           SKY/WX    TMP DP  RH WIND       PRES   REMARKS
EVANSVILLE     MOCLDY    66  58  75 CALM      29.93R
WASHINGTON +   MOCLDY    65  57  75 S7        29.91F

$$

INZ062-063-066-070>080-084-089>092-021000-
SOUTH CENTRAL AND SOUTHEAST INDIANA

CITY           SKY/WX    TMP DP  RH WIND       PRES   REMARKS
BLOOMINGTON    MOCLDY    63  58  83 SE7       29.94F
NORTH VERNON + CLEAR     63  59  88 SE3       29.98S
SEYMOUR +      CLEAR     63  59  88 SE6       29.97

$$



USA.gov is the U.S. government's official web portal to all federal, state and local government web resources and services.